Location: Mount Cross
(36.6390°N, 79.4878°W)
Time: 12:14:06
(UTC+00:00)

Tiros 1 - Pass Details

Date: 31 March 2023
Orbit: 627 x 661 km, 48.4° (Epoch: 05 June)

Event Time Altitude Azimuth Distance (km) Brightness Sun altitude
Rises 16:03:32 0° 288° (WNW) 2,982 10.3 52.9°
Reaches altitude 10° 16:06:48 10° 265° (W) 2,061 9.7 53.3°
Maximum altitude 16:09:28 15° 231° (SW) 1,743 9.6 53.5°
Drops below altitude 10° 16:12:07 10° 197° (SSW) 2,043 10.2 53.8°
Sets 16:15:20 0° 173° (S) 2,941 11.0 54.1°
